New Bern, NC

6:01 AM EDT on September 25, 2017 (GMT -0400)
Craven County Regional

Weather History for KEWN - December, 2012

Change the Weather History Date:

Sunday, December 16, 2012

  Actual Average Record
Temperature  
Mean Temperature 58 °F 46 °F  
Max Temperature 61 °F 57 °F 83 °F (1971)
Min Temperature 54 °F 36 °F 17 °F (1955)
Degree Days  
Heating Degree Days 7 19  
Month to date heating degree days 148 267  
Since 1 July heating degree days 697 694  
Cooling Degree Days 0 0  
Month to date cooling degree days 3 0  
Year to date cooling degree days 2028 1900  
Growing Degree Days 7 (Base 50)    
Moisture  
Dew Point 56 °F    
Average Humidity 95    
Maximum Humidity 100    
Minimum Humidity 90    
Precipitation  
Precipitation 0.07 in 0.11 in 1.59 in (1973)
Month to date precipitation 1.78 1.74  
Year to date precipitation 49.45 51.09  
Snow  
Snow 0.00 in - - ()
Month to date snowfall 0.0  
Since 1 July snowfall 0.0  
Snow Depth 0.00 in    
Sea Level Pressure  
Sea Level Pressure 30.03 in    
Wind  
Wind Speed 2 mph (SW)    
Max Wind Speed 10 mph    
Max Gust Speed 13 mph    
Visibility 7 miles    
Events Rain    
T = Trace of Precipitation, MM = Missing Value Source: NWS Daily Summary

Daily Weather History Graph

Daily Weather History Graph

Search for Another Location

Airport or City:

Trip Planner

Search our weather history database for the weather conditions in past years. The results will help you decide how hot, cold, wet, or windy it might be!

Date:

Astronomy

Dec. 16, 2012 Rise Set
Actual Time 7:09 AM EST 4:58 PM EST
Civil Twilight 6:41 AM EST 5:26 PM EST
Nautical Twilight 6:09 AM EST 5:58 PM EST
Astronomical Twilight 5:39 AM EST 6:29 PM EST
Moon 9:48 AM EST (12/16) 9:02 PM EST (12/16)
Length of Visible Light 10h 44m
Length of Day
9h 48m
Waxing Crescent, 16% of the Moon is Illuminated
Dec 16
Waxing Crescent
Dec 20
First Quarter
Dec 28
Full
Jan 4
Last Quarter
Jan 11
New

Hourly Weather History & Observations

Time (EST) Temp. Dew Point Humidity Pressure Visibility Wind Dir Wind Speed Gust Speed Precip Events Conditions
12:54 AM 54.0 °F 51.1 °F 90% 30.09 in 10.0 mi Calm Calm - 0.00 in   Overcast
1:54 AM 54.0 °F 52.0 °F 93% 30.09 in 10.0 mi Calm Calm - N/A   Overcast
2:54 AM 54.0 °F 52.0 °F 93% 30.08 in 10.0 mi Calm Calm - 0.00 in   Overcast
3:54 AM 55.0 °F 53.1 °F 93% 30.06 in 8.0 mi Calm Calm - N/A   Overcast
4:08 AM 55.4 °F 53.6 °F 94% 30.06 in 7.0 mi Calm Calm - 0.00 in Rain Light Rain
4:39 AM 59.0 °F 57.2 °F 94% 30.05 in 3.0 mi SSW 5.8 mph - 0.01 in Rain Light Rain
4:54 AM 60.1 °F 57.9 °F 93% 30.05 in 4.0 mi SSW 5.8 mph - 0.01 in Rain Light Rain
5:15 AM 60.8 °F 59.0 °F 94% 30.06 in 4.0 mi SW 5.8 mph - 0.01 in Rain Light Rain
5:45 AM 60.8 °F 60.8 °F 100% 30.07 in 7.0 mi West 6.9 mph - 0.02 in Rain Light Rain
5:52 AM 60.8 °F 59.0 °F 94% 30.07 in 6.0 mi West 4.6 mph - 0.02 in Rain Light Rain
5:54 AM 61.0 °F 59.0 °F 93% 30.07 in 7.0 mi West 3.5 mph - 0.02 in Rain Light Rain
6:18 AM 59.0 °F 57.2 °F 94% 30.09 in 7.0 mi NW 9.2 mph - 0.00 in Rain Light Rain
6:54 AM 55.9 °F 55.0 °F 97% 30.09 in 5.0 mi West 4.6 mph - 0.01 in   Overcast
7:47 AM 53.6 °F 53.6 °F 100% 30.12 in 1.8 mi NW 6.9 mph - 0.01 in Rain Light Rain
8:19 AM 53.6 °F 53.6 °F 100% 30.09 in 2.5 mi Calm Calm - 0.00 in   Overcast
8:26 AM 53.6 °F 53.6 °F 100% 30.09 in 3.0 mi Calm Calm - 0.00 in   Overcast
8:54 AM 55.0 °F 54.0 °F 96% 30.10 in 5.0 mi Calm Calm - 0.01 in Rain Light Rain
9:19 AM 55.4 °F 53.6 °F 94% 30.10 in 4.0 mi NW 4.6 mph - 0.00 in   Overcast
9:31 AM 55.4 °F 53.6 °F 94% 30.10 in 4.0 mi Calm Calm - 0.00 in Rain Light Rain
9:54 AM 55.9 °F 54.0 °F 93% 30.10 in 4.0 mi West 3.5 mph - 0.00 in   Overcast
10:54 AM 57.0 °F 55.0 °F 93% 30.07 in 10.0 mi Calm Calm - 0.00 in Rain Light Rain
11:54 AM 57.0 °F 55.9 °F 96% 30.04 in 10.0 mi SSW 4.6 mph - 0.00 in Rain Light Rain
12:54 PM 59.0 °F 57.0 °F 93% 30.02 in 10.0 mi Calm Calm - 0.00 in Rain Light Rain
1:42 PM 60.8 °F 57.2 °F 88% 30.01 in 10.0 mi Calm Calm - 0.00 in   Overcast
1:54 PM 60.1 °F 57.0 °F 90% 30.01 in 10.0 mi SW 3.5 mph - 0.00 in   Overcast
2:46 PM 60.8 °F 57.2 °F 88% 29.99 in 10.0 mi West 3.5 mph - 0.00 in Rain Light Rain
2:54 PM 60.1 °F 57.9 °F 93% 29.99 in 9.0 mi Variable 3.5 mph - 0.01 in Rain Light Rain
3:54 PM 60.1 °F 57.9 °F 93% 30.00 in 10.0 mi SSW 3.5 mph - 0.00 in   Overcast
4:54 PM 60.1 °F 57.9 °F 93% 30.00 in 10.0 mi Calm Calm - N/A   Overcast
5:12 PM 59.0 °F 57.2 °F 94% 30.00 in 1.8 mi Calm Calm - N/A   Mostly Cloudy
5:19 PM 59.0 °F 57.2 °F 94% 30.00 in 0.8 mi Calm Calm - N/A   Mostly Cloudy
5:33 PM 57.2 °F 57.2 °F 100% 30.00 in 1.5 mi Calm Calm - N/A   Mostly Cloudy
5:54 PM 59.0 °F 57.9 °F 96% 30.00 in 1.2 mi South 4.6 mph - N/A   Overcast
6:00 PM 59.0 °F 57.2 °F 94% 29.99 in 3.0 mi South 3.5 mph - N/A   Overcast
6:35 PM 59.0 °F 57.2 °F 94% 29.99 in 10.0 mi South 4.6 mph - N/A   Mostly Cloudy
6:54 PM 59.0 °F 57.9 °F 96% 29.99 in 10.0 mi South 3.5 mph - N/A   Mostly Cloudy
7:54 PM 59.0 °F 57.0 °F 93% 29.97 in 9.0 mi Calm Calm - N/A   Scattered Clouds
8:54 PM 59.0 °F 57.0 °F 93% 29.97 in 10.0 mi SSW 4.6 mph - N/A   Overcast
9:24 PM 59.0 °F 57.2 °F 94% 29.96 in 10.0 mi Calm Calm - N/A   Overcast
9:43 PM 59.0 °F 57.2 °F 94% 29.96 in 10.0 mi South 3.5 mph - N/A   Overcast
9:54 PM 59.0 °F 57.9 °F 96% 29.96 in 10.0 mi South 3.5 mph - N/A   Overcast
10:20 PM 59.0 °F 57.2 °F 94% 29.95 in 10.0 mi South 4.6 mph - N/A   Overcast
10:38 PM 59.0 °F 57.2 °F 94% 29.94 in 10.0 mi South 4.6 mph - N/A   Scattered Clouds
10:54 PM 60.1 °F 57.9 °F 93% 29.95 in 10.0 mi SSW 4.6 mph - N/A   Mostly Cloudy
11:54 PM 60.1 °F 59.0 °F 96% 29.92 in 10.0 mi Calm Calm - N/A   Overcast